Location: Caltech
(34.1382°N, 118.1253°W)
Time: 19:09:12
(UTC-07:00)

AO-7 - Pass Details

Date: 25 March 2018
Orbit: 1440 x 1458 km, 101.7° (Epoch: 18 July)

Event Time Altitude Azimuth Distance (km) Brightness Sun altitude
Rises 06:13:56 0° 2° (N) 4,541 ? -8.1°
Reaches altitude 10° 06:17:27 10° 349° (NNW) 3,559 ? -7.4°
Maximum altitude 06:23:19 22° 303° (WNW) 2,728 ? -6.2°
Drops below altitude 10° 06:29:11 10° 257° (WSW) 3,549 ? -5.0°
Enters shadow 06:31:51 - 246° (WSW) 4,269 ? -4.4°
